Wind_Speed
11 7 9 9 7 8 16 18 1 8 6 11 7 4 13 15 8 2 12 17 28 24 25 23 24 24 23 20 19 18 16 15 13 12 11 10 10 10 11 12 12 12 12 13 13 14 15 16 15
9 9 10 9 8 13 14 16 7 16 8 15 12 10 11 13 12 13 10 16 23 25 25 22 23 22 22 19 17 16 13 14 11 10 10 10 9 10 11 11 11 11 11 12 12 15 17 19 19
8 11 9 7 13 15 12 12 14 15 13 12 7 11 7 7 7 9 13 16 21 21 23 24 22 21 19 16 14 13 13 13 11 10 10 10 9 10 11 10 10 11 11 12 14 15 16 17 17
10 8 8 9 18 16 8 16 17 16 9 6 9 11 4 1 5 10 17 18 19 21 22 26 20 20 18 15 13 12 12 12 10 9 9 9 9 9 9 9 11 12 12 13 13 13 13 13 15
15 9 11 14 18 5 5 9 12 11 9 13 11 10 8 6 2 13 15 15 15 20 20 27 20 19 16 12 12 12 12 11 9 8 8 8 9 8 10 10 12 12 11 11 11 10 11 13 15
8 11 13 15 18 5 9 13 15 12 15 7 4 11 8 5 10 11 13 15 16 15 21 24 20 14 13 11 12 12 10 10 8 7 7 8 9 9 9 9 9 10 10 9 9 9 10 12 13
16 11 15 17 4 8 10 16 7 11 11 7 3 1 7 12 10 11 20 20 17 25 22 20 18 16 13 12 12 11 10 9 8 7 8 7 8 9 8 6 5 5 6 6 7 7 8 9 11
13 13 19 10 11 2 6 6 8 5 13 7 7 3 6 12 12 15 20 21 18 13 20 19 16 16 15 14 11 10 9 8 8 7 8 9 8 7 7 6 3 3 4 4 6 7 8 8 7
11 11 15 15 7 9 8 10 5 12 9 4 14 6 14 18 18 18 17 16 16 16 17 15 14 13 13 12 10 8 8 8 9 8 9 5 3 4 2 3 4 3 4 6 8 8 7 8 10
11 13 16 4 14 11 6 7 11 10 5 11 5 14 22 24 20 18 15 16 17 17 16 14 13 13 12 11 10 9 7 7 7 6 5 4 2 2 2 3 6 6 8 7 8 9 8 9 12
16 15 5 6 13 11 11 9 13 11 11 16 19 18 17 22 18 17 15 17 17 16 13 12 12 11 9 10 10 9 7 7 7 6 4 3 2 3 2 3 5 5 7 8 10 9 11 11 12
15 13 6 7 1 2 5 6 19 24 11 29 16 20 18 20 18 19 18 17 16 13 12 10 11 10 10 10 10 10 9 7 6 3 2 1 0 2 2 3 8 9 9 10 11 12 11 12 13
12 4 2 3 4 7 6 6 14 12 13 18 20 18 16 18 18 18 18 19 17 16 15 13 12 12 12 12 12 10 9 7 4 1 1 0 2 1 3 4 3 9 12 12 13 15 14 16 16
11 9 3 6 6 5 8 14 12 7 17 19 19 19 17 16 16 17 16 16 16 18 16 15 15 14 14 14 13 10 7 4 4 2 3 5 4 6 7 6 6 10 12 13 13 13 13 14 15
4 7 11 3 9 10 12 8 12 10 17 16 16 16 15 15 17 16 18 17 18 18 19 19 19 17 17 14 11 6 5 8 6 3 1 4 3 3 5 3 8 11 8 10 12 12 13 15 15
12 12 13 19 11 7 11 13 8 12 16 16 18 16 16 15 18 17 18 18 19 19 19 19 18 18 15 12 8 5 4 5 5 7 7 4 2 1 3 4 4 6 6 8 10 12 13 16 18
7 9 14 9 8 12 13 18 11 14 16 18 16 15 15 15 15 17 17 18 19 18 20 19 18 16 10 5 4 5 8 9 6 7 5 6 5 4 2 3 4 7 9 11 12 13 15 17 20
6 11 15 13 10 10 3 16 10 14 13 14 16 15 13 13 13 15 16 17 18 18 18 18 16 13 7 3 7 9 10 7 6 6 6 5 4 4 4 4 5 8 11 13 14 17 18 19 21
13 9 13 15 6 9 10 14 14 12 13 14 14 14 14 14 13 13 13 15 17 18 18 17 14 10 8 7 8 8 7 6 6 6 5 5 5 5 6 7 10 13 14 16 17 18 19 22 23
4 5 12 9 9 9 10 10 11 12 13 14 14 14 14 13 12 13 14 16 17 18 17 16 12 10 9 8 6 4 4 5 6 5 5 5 6 7 9 11 13 15 17 18 19 19 19 19 19
8 10 11 13 11 13 12 13 13 11 8 9 11 13 13 13 14 13 16 16 16 17 17 15 13 13 9 8 6 6 6 5 3 3 3 6 7 10 12 14 16 17 19 20 20 19 15 18 17
8 4 11 4 11 13 16 10 11 15 14 12 12 10 12 14 13 14 17 18 17 18 16 15 15 12 7 6 6 6 7 7 5 4 6 9 10 13 15 17 18 18 19 20 19 16 11 17 16
17 10 7 7 11 12 17 9 9 18 15 16 13 13 13 13 15 16 21 23 21 18 17 17 14 11 10 10 8 6 6 4 3 5 8 11 13 14 15 16 18 18 18 18 16 14 14 14 16
5 4 6 6 10 7 16 12 17 15 15 16 15 14 15 16 16 16 19 20 18 18 16 16 15 13 12 12 11 10 8 4 4 6 8 10 12 13 14 15 17 17 17 15 14 9 10 10 14
9 9 8 9 8 10 5 7 11 10 7 15 18 18 16 15 16 17 18 21 21 19 17 17 15 14 13 12 11 10 6 5 5 7 8 10 11 12 14 16 17 16 14 10 7 7 11 12 12
10 13 9 7 7 11 6 7 4 8 2 7 18 17 17 17 16 17 20 20 19 19 18 17 17 16 14 13 11 8 5 5 3 5 7 8 10 12 14 15 15 13 8 5 6 11 12 13 14
9 8 7 7 3 7 13 18 10 5 6 10 18 18 19 18 18 18 20 20 20 19 19 19 18 17 15 13 10 7 5 5 3 4 6 8 10 12 13 14 13 7 10 9 13 13 15 15 9
8 2 5 6 6 11 10 7 6 8 8 12 17 19 19 19 19 17 20 20 19 21 20 20 19 18 15 12 10 9 5 3 1 4 7 8 10 11 13 13 13 11 11 14 16 18 16 13 12
7 10 7 5 3 5 4 3 8 4 3 12 15 18 19 19 18 17 18 19 20 21 22 21 20 17 14 12 11 9 7 4 3 4 6 9 11 12 13 13 13 14 15 18 19 17 17 15 13
10 8 11 5 6 3 3 8 2 3 3 7 12 15 16 18 18 17 19 20 22 23 23 23 20 17 14 13 12 10 8 6 5 6 7 9 11 12 13 12 13 15 17 17 14 14 13 15 15
Wind_Direction
234 232 240 246 239 232 259 250 181 121 106 43 21 56 67 29 11 55 93 107 131 147 150 154 159 153 146 146 138 133 132 122 116 111 100 90 83 85 87 86 80 74 65 59 57 56 54 46 41
212 219 234 260 248 251 237 226 118 75 117 107 68 73 66 74 68 112 124 145 138 149 150 157 159 151 150 144 138 135 127 119 115 107 100 90 91 92 90 86 77 66 58 59 58 63 57 48 44
222 227 255 224 235 257 293 99 93 110 140 118 105 74 30 47 94 111 140 155 143 151 151 158 157 149 150 144 137 131 126 119 111 103 94 88 90 92 89 78 68 63 63 64 70 66 62 58 52
211 202 255 253 247 233 298 103 136 160 110 135 120 101 76 136 128 145 150 156 154 152 149 139 157 154 149 143 134 131 123 112 108 105 93 92 92 93 92 85 78 75 71 76 76 71 66 58 49
237 247 239 224 245 265 261 99 198 162 165 124 131 127 151 163 124 148 154 158 157 147 141 140 159 155 140 132 130 129 118 109 104 101 90 91 97 95 93 87 83 83 84 84 77 69 59 48 39
224 245 238 239 226 188 219 149 84 77 66 306 109 138 137 143 153 157 130 105 140 140 143 142 154 139 125 131 131 121 116 112 104 92 89 99 97 94 95 99 90 86 83 71 63 50 39 39 27
244 219 248 255 256 175 209 151 102 112 157 131 142 147 110 159 156 143 132 111 151 158 147 142 141 140 138 132 125 117 116 110 106 96 103 105 101 96 96 94 88 69 63 48 27 18 7 10 7
232 270 252 255 237 145 173 142 59 194 100 153 165 258 158 158 129 119 131 143 151 154 127 131 135 135 133 127 120 113 112 108 108 104 104 96 98 82 73 54 29 32 18 356 347 333 328 332 337
246 259 246 233 138 192 122 144 120 109 136 157 244 139 132 142 145 131 129 122 121 114 118 122 132 129 128 119 111 113 118 110 100 101 98 83 133 83 54 346 322 329 328 330 334 340 343 348 309
220 232 249 46 119 59 325 155 201 214 127 202 138 104 134 149 147 141 138 131 126 117 116 116 113 113 129 127 124 123 121 119 124 120 115 122 84 51 346 332 342 330 325 325 336 339 336 342 342
221 261 334 207 112 167 200 195 197 30 211 154 135 143 146 129 147 138 138 138 123 116 113 122 125 130 137 129 130 120 124 130 131 122 127 128 145 69 4 358 313 336 308 308 324 315 331 338 338
248 249 300 23 349 154 253 98 100 120 210 243 127 138 145 135 147 148 150 139 132 131 130 138 135 130 117 122 120 123 117 109 107 118 166 145 209 109 67 31 350 322 314 316 310 315 322 326 329
225 233 200 270 195 232 135 161 76 93 103 112 122 140 146 144 156 149 153 141 142 138 142 137 135 132 131 122 116 108 92 65 69 8 335 101 227 288 319 267 258 318 300 305 305 311 322 323 323
202 249 122 172 126 154 163 117 126 72 105 120 142 145 144 152 149 146 139 140 150 136 137 139 136 140 132 118 112 107 83 64 29 337 241 213 256 312 330 334 331 295 307 311 318 327 327 328 328
227 190 170 130 173 169 128 138 96 124 123 136 142 138 145 144 143 153 156 151 148 148 145 142 138 130 125 121 116 101 115 44 9 11 330 274 270 294 288 325 314 306 319 317 317 321 320 317 316
213 166 152 175 184 152 229 117 131 148 138 144 147 151 156 156 157 154 157 162 156 151 150 148 147 142 135 131 120 291 18 48 84 83 81 116 87 129 20 328 301 309 315 320 325 314 313 317 318
186 200 136 168 199 175 231 125 139 168 171 153 152 155 156 160 164 156 167 165 165 160 157 158 157 156 150 87 98 121 96 101 88 75 79 68 56 45 8 327 317 319 310 311 312 317 317 315 315
158 185 183 160 165 220 203 117 144 176 177 161 164 162 162 168 170 169 174 171 168 166 165 163 166 166 158 157 113 108 112 116 109 90 71 65 40 26 345 317 325 328 316 315 319 314 312 307 308
208 193 182 130 150 216 164 156 160 177 183 180 184 171 178 179 159 168 184 173 175 170 171 171 169 173 182 152 138 137 143 120 101 86 78 54 32 8 351 328 320 319 317 317 310 306 308 309 312
226 210 118 125 171 247 184 152 162 175 190 186 192 192 186 170 173 173 172 179 178 174 172 176 168 167 157 146 126 90 112 91 106 85 59 45 15 351 333 329 320 319 314 311 307 311 306 303 311
234 227 158 167 184 242 191 161 172 177 176 212 201 197 187 176 183 171 173 172 169 170 171 168 165 155 138 140 139 117 113 133 147 60 16 358 346 335 327 321 316 312 309 309 313 306 305 306 310
189 101 212 250 196 212 212 236 183 171 177 191 193 193 185 183 175 171 170 166 164 163 163 162 152 143 140 145 108 78 53 51 44 4 357 330 327 324 321 317 313 309 306 306 305 305 309 302 306
121 245 175 195 223 231 213 250 166 244 188 185 184 189 181 172 169 166 165 161 163 155 159 150 148 142 136 123 126 117 98 86 40 1 343 337 333 327 323 320 316 311 304 300 297 294 299 299 306
139 163 207 238 257 263 260 234 160 194 205 178 180 178 170 165 160 158 155 154 146 153 153 153 151 140 127 118 111 104 94 81 41 5 351 342 327 326 326 324 317 308 298 293 293 302 294 318 311
199 224 222 223 225 236 273 293 272 261 172 179 183 178 173 169 167 163 158 160 157 159 161 158 150 142 135 127 113 100 91 59 41 8 353 334 329 329 327 324 319 312 304 302 306 305 315 298 296
219 249 248 280 274 272 139 248 283 21 100 200 173 181 177 178 174 172 170 169 167 168 166 163 161 154 146 132 121 114 100 67 24 5 339 328 328 327 323 320 317 310 310 303 277 285 289 283 286
188 247 317 298 299 282 287 283 195 143 158 191 175 182 183 186 181 183 180 179 176 175 173 171 170 159 153 144 144 141 129 91 32 337 329 333 330 322 321 316 310 315 289 281 296 292 284 287 286
274 30 217 226 258 256 273 254 296 168 199 205 185 187 187 190 187 190 188 181 183 185 179 177 173 168 161 155 154 163 150 147 268 326 337 331 320 316 315 313 307 288 273 288 289 297 301 285 285
184 231 232 298 275 281 296 296 46 358 233 201 205 192 191 195 192 194 187 189 190 186 181 179 176 171 170 168 166 171 176 204 264 315 322 320 315 314 311 308 302 296 289 290 296 296 281 286 292
301 257 206 226 212 228 306 282 129 118 251 206 216 198 198 202 198 197 191 190 191 188 185 184 179 179 181 176 181 184 197 226 270 298 309 311 308 308 305 301 296 294 299 298 296 284 290 289 294
Height
790 789 790 784 789 771 765 746 727 750 765 765 761 761 769 770 777 794 787 793 793 802 806 811 815 815 819 824 826 828 831 832 835 836 837 837 838 839 839 840 840 841 841 842 842 840 841 840 839
787 788 786 771 784 772 751 726 744 762 772 760 768 769 771 782 775 785 792 795 797 803 806 813 816 818 822 826 828 830 834 834 837 838 838 839 840 841 841 843 843 844 844 843 844 843 842 843 842
788 787 778 774 771 768 750 733 750 758 763 762 777 774 778 782 783 787 793 797 800 806 808 814 818 820 824 828 831 834 835 836 839 840 842 842 844 844 845 846 846 845 846 846 846 847 845 844 844
786 780 774 775 766 746 744 747 755 761 759 765 773 783 783 787 786 791 794 799 802 807 811 807 821 823 825 829 833 837 837 839 842 843 843 844 846 847 847 847 846 848 849 849 848 849 849 848 846
782 766 774 768 760 740 742 751 743 753 759 762 762 783 786 788 790 793 795 801 807 810 808 811 823 825 827 831 835 839 839 841 843 844 845 846 848 849 848 850 850 850 851 850 850 851 849 849 848
776 763 772 766 750 740 740 741 754 769 767 772 766 774 783 786 788 796 799 805 808 809 811 814 823 825 830 834 836 838 840 842 845 847 847 849 849 851 851 852 853 852 852 853 852 851 851 849 849
774 765 765 748 742 745 742 734 760 766 777 782 771 780 777 784 788 795 801 801 813 811 812 819 825 829 833 836 839 839 842 844 845 847 848 850 851 851 853 854 853 855 854 854 854 853 853 852 851
765 758 760 748 747 754 736 742 742 754 764 763 763 786 782 781 792 801 806 809 813 804 814 823 828 830 833 836 839 841 843 846 847 848 850 851 852 853 855 856 855 855 855 856 855 854 853 851 851
764 770 760 746 751 767 734 749 750 753 764 766 775 762 773 785 795 801 807 811 814 815 818 823 828 830 833 838 842 842 845 846 848 851 851 853 855 854 855 857 857 856 856 857 856 854 853 851 849
766 766 746 735 740 756 756 751 766 760 764 771 775 769 781 787 795 800 806 811 814 818 821 825 829 832 836 839 842 845 847 848 849 850 851 854 856 855 856 857 857 857 858 857 857 856 853 850 850
762 762 748 755 733 741 750 752 748 770 766 757 769 778 782 789 801 802 807 805 811 818 823 828 832 835 836 840 842 843 847 849 852 851 852 854 855 854 856 857 857 856 857 857 857 856 855 853 852
765 753 748 745 740 746 751 744 765 791 802 773 766 778 781 790 801 804 808 808 817 821 826 831 834 836 838 840 841 845 848 850 850 854 856 856 857 856 855 854 855 856 857 857 857 855 855 853 851
764 753 755 754 751 749 747 752 758 762 761 763 773 783 785 791 795 802 805 809 817 821 828 832 835 838 841 842 845 847 849 849 853 855 855 855 857 857 856 854 851 856 858 857 856 854 853 852 850
753 755 760 753 754 751 754 754 761 768 764 773 779 782 788 792 795 801 806 812 818 822 829 834 838 842 840 843 846 848 848 851 853 854 855 855 857 856 856 856 856 859 858 858 857 855 853 852 851
756 764 767 760 757 757 753 769 775 770 770 778 779 784 789 793 798 803 808 814 818 824 830 835 838 840 841 845 847 847 847 848 852 853 854 855 856 854 854 857 860 859 857 858 857 855 854 852 849
761 757 772 765 756 758 757 781 774 769 773 778 781 785 789 794 798 803 809 814 818 824 829 834 837 839 842 844 844 847 847 847 851 851 852 854 853 854 856 858 859 859 858 858 856 856 853 851 849
762 778 772 773 752 760 760 774 773 768 770 776 781 785 788 794 797 803 810 813 817 823 829 833 836 840 843 843 847 847 845 849 852 853 855 855 856 858 859 859 859 859 858 857 856 854 853 850 848
775 767 767 769 764 759 761 772 773 768 770 776 779 785 791 795 799 805 808 813 818 824 829 833 837 840 842 844 845 847 849 852 853 855 856 857 859 859 859 859 860 859 857 856 855 854 852 849 845
756 758 761 758 760 763 766 770 774 771 771 777 779 783 789 793 798 806 809 812 817 823 828 833 836 840 841 842 844 847 849 852 854 855 858 859 859 860 860 859 858 857 856 855 854 852 850 848 844
755 760 764 764 765 766 767 771 770 771 772 773 778 781 785 791 800 806 810 813 817 823 827 831 835 838 839 842 844 845 848 851 854 856 858 859 860 860 860 859 858 857 856 854 852 850 848 847 845
758 761 768 769 768 763 760 772 776 773 774 775 775 776 781 791 799 806 810 814 818 823 827 830 833 837 839 843 846 848 850 852 853 855 857 859 860 861 860 859 857 856 854 852 850 849 848 847 845
769 755 764 766 774 779 757 783 771 777 778 781 779 780 784 789 795 803 808 812 818 822 826 829 834 838 842 844 845 847 848 850 857 858 859 860 859 859 858 856 855 853 852 850 848 847 847 848 845
786 762 761 764 768 762 767 773 807 778 778 776 781 782 784 788 793 799 804 811 815 821 826 831 836 840 843 845 847 849 852 855 856 858 858 858 858 857 856 854 853 851 849 847 846 846 846 847 845
762 766 765 763 764 785 763 774 784 768 761 766 774 781 784 788 793 798 805 810 817 823 829 833 837 841 844 846 849 852 854 856 856 858 857 857 857 855 854 852 851 849 846 845 844 844 846 846 845
764 771 786 788 786 791 759 769 761 746 748 753 771 778 785 789 793 798 804 811 818 824 829 833 836 841 844 848 850 853 856 857 857 858 857 857 855 854 852 851 848 846 843 842 843 844 845 846 844
770 766 784 803 796 778 764 779 758 742 741 747 761 774 782 789 793 797 803 809 817 823 828 832 836 840 844 847 850 852 854 854 856 856 857 856 854 852 851 849 846 844 843 844 844 844 844 843 842
764 782 763 780 785 795 775 756 738 750 753 754 762 772 781 787 791 795 802 808 815 822 827 830 834 839 843 845 848 850 852 852 855 855 855 854 852 851 849 847 844 843 844 844 843 841 839 837 837
770 760 787 783 809 807 770 764 760 759 761 759 762 770 777 784 789 794 799 805 813 820 825 829 833 837 841 843 845 848 850 851 853 853 852 851 851 849 847 844 842 841 840 841 839 837 836 836 834
774 776 776 774 781 796 794 771 751 755 754 758 758 763 772 779 784 791 796 805 812 818 823 827 830 834 838 840 843 845 846 849 850 849 849 849 848 846 844 842 840 839 837 836 834 833 833 831 831
759 761 765 790 790 789 796 782 755 756 755 755 756 759 766 773 779 787 796 804 810 816 821 824 827 831 834 836 839 841 843 846 846 846 846 845 844 843 841 839 838 836 834 833 831 830 829 829 829